User: anonymous   Login
Location: Cherry Springs State Park
(41.6616°N, 77.8240°W)
Time: 02:45:48
(UTC-04:00)
Language:

Cosmos 1437 - Orbit

View from above orbital plane
View from above orbital plane
View from above satellite
View from above satellite

Ground track
Ground track

The orbit data is extracted from the following two-line orbital elements,

1 13770U 83003A   16236.83522198  .00004471  00000-0  86111-4 0  9995
2 13770  81.1607 152.6483 0006160 217.7626 142.3188 15.47597497840474
Epoch (UTC): 23 August 2016 20:02:43
Eccentricity: 0.0006160
inclination: 81.1607°
perigee height: 419 km
apogee height: 428 km
right ascension of ascending node: 152.6483°
argument of perigee: 217.7626°
revolutions per day: 15.47597497
mean anomaly at epoch: 142.3188°
orbit number at epoch: 84047

The dashed part of the orbit path shows where the satellite is in the earth's shadow,  

DLR